Orbital elements:
2012 BE14 Earth MOID = 0.2831 AU
Epoch 2012 Mar. 14.0 TT = JDT 2456000.5 MPC
M 31.01368 (2000.0) P Q
n 0.59699216 Peri. 0.55409 -0.50742580 -0.79565057
a 1.3968731 Node 119.98066 +0.78911359 -0.58330304
e 0.0931907 Incl. 22.45477 +0.34614853 +0.16339441
P 1.65 H 22.6 G 0.15 U 8